Location: Proctor
(47.8934°N, 114.3048°W)
Time: 21:43:57
(UTC+00:00)

Tiros 1 despin weight - Pass Details

Date: 27 June 2024
Orbit: 576 x 620 km, 48.2° (Epoch: 19 July)

Event Time Altitude Azimuth Distance (km) Brightness Sun altitude
Rises 16:49:31 0° 200° (SSW) 2,859 ? 48.2°
Reaches altitude 10° 16:52:26 10° 180° (S) 1,966 ? 48.7°
Maximum altitude 16:55:25 17° 139° (SE) 1,546 ? 49.1°
Drops below altitude 10° 16:58:25 10° 98° (E) 1,984 ? 49.6°
Sets 17:01:22 0° 79° (ENE) 2,896 ? 50.0°
